TimeCST,TemperatureF,Dew PointF,Humidity,Sea Level PressureIn,VisibilityMPH,Wind Direction,Wind SpeedMPH,Gust SpeedMPH,PrecipitationIn,Events,Conditions,WindDirDegrees,DateUTC
12:53 AM,32.0,28.9,88,30.35,9.0,Calm,Calm,-,N/A,,Clear,0,2012-11-29 06:53:00
1:53 AM,32.0,28.9,88,30.35,10.0,Calm,Calm,-,N/A,,Clear,0,2012-11-29 07:53:00
2:53 AM,30.9,28.0,89,30.33,10.0,Calm,Calm,-,N/A,,Clear,0,2012-11-29 08:53:00
3:53 AM,32.0,28.9,88,30.34,10.0,Calm,Calm,-,N/A,,Clear,0,2012-11-29 09:53:00
4:53 AM,30.9,28.0,89,30.34,10.0,Calm,Calm,-,N/A,,Clear,0,2012-11-29 10:53:00
5:53 AM,30.9,28.0,89,30.36,10.0,Calm,Calm,-,N/A,,Clear,0,2012-11-29 11:53:00
6:53 AM,30.9,28.0,89,30.36,10.0,Calm,Calm,-,N/A,,Clear,0,2012-11-29 12:53:00
7:53 AM,35.1,30.9,85,30.37,10.0,Calm,Calm,-,N/A,,Clear,0,2012-11-29 13:53:00
8:53 AM,39.9,32.0,73,30.37,10.0,South,8.1,-,N/A,,Clear,180,2012-11-29 14:53:00
9:53 AM,46.0,33.1,61,30.35,10.0,South,11.5,-,N/A,,Clear,180,2012-11-29 15:53:00
10:53 AM,50.0,35.1,57,30.34,10.0,South,9.2,-,N/A,,Clear,180,2012-11-29 16:53:00
11:53 AM,55.9,32.0,40,30.31,10.0,SSW,13.8,20.7,N/A,,Clear,210,2012-11-29 17:53:00
12:53 PM,57.0,32.0,39,30.27,10.0,SSW,16.1,-,N/A,,Clear,210,2012-11-29 18:53:00
1:53 PM,57.9,30.9,36,30.25,10.0,SSW,13.8,-,N/A,,Clear,200,2012-11-29 19:53:00
2:53 PM,57.0,34.0,42,30.23,10.0,South,12.7,-,N/A,,Clear,180,2012-11-29 20:53:00
3:53 PM,55.9,35.1,45,30.23,10.0,South,5.8,-,N/A,,Clear,190,2012-11-29 21:53:00
4:53 PM,52.0,33.1,49,30.23,10.0,SSE,5.8,-,N/A,,Clear,150,2012-11-29 22:53:00
5:53 PM,50.0,32.0,50,30.24,10.0,SSE,3.5,-,N/A,,Clear,150,2012-11-29 23:53:00
6:53 PM,46.9,32.0,56,30.24,10.0,South,5.8,-,N/A,,Clear,170,2012-11-30 00:53:00
7:53 PM,45.0,32.0,60,30.23,10.0,SSE,4.6,-,N/A,,Clear,150,2012-11-30 01:53:00
8:53 PM,44.1,32.0,63,30.23,10.0,Calm,Calm,-,N/A,,Clear,0,2012-11-30 02:53:00
9:53 PM,39.0,32.0,76,30.24,10.0,Calm,Calm,-,0.00,,Clear,0,2012-11-30 03:53:00
10:53 PM,45.0,32.0,60,30.22,10.0,South,10.4,-,N/A,,Clear,170,2012-11-30 04:53:00
11:53 PM,43.0,30.9,62,30.22,10.0,Calm,Calm,-,N/A,,Clear,0,2012-11-30 05:53:00